When you browse on this site, cookies collect data to enhance your experience and personalize the content and advertising you see.
Visit our Privacy Policy to learn more. By continuing to use the site, you agree to this use of cookies and data.
  • In Hungary
  • List of Countries
  • For 7 days
  • Water Temperature
  • Weather Map
  • News
  • Weather Widgets
  • user-avatar
    Login

    Hourly Weather Ochotnica

    Today, 12 November, Tuesday

    Time Temperature Precipitation Wind Pressure Humidity
    00:00 +3°C° 0 mm 2 mps 711 mmHg 85%
    01:00 +3°C° 0 mm 2 mps 711 mmHg 85%
    02:00 +3°C° 0 mm 2 mps 711 mmHg 85%
    03:00 +3°C° 0 mm 2 mps 711 mmHg 86%
    04:00 +2°C° 0 mm 3 mps 710 mmHg 87%
    05:00 +4°C° 0 mm 2 mps 710 mmHg 86%
    06:00 +4°C° 0 mm 2 mps 710 mmHg 86%
    07:00 +4°C° 0 mm 2 mps 710 mmHg 85%
    08:00 +6°C° 0 mm 2 mps 710 mmHg 82%
    09:00 +7°C° 0 mm 2 mps 710 mmHg 79%
    10:00 +8°C° 0 mm 2 mps 710 mmHg 76%
    11:00 +9°C° 0 mm 2 mps 710 mmHg 75%
    12:00 +9°C° 0 mm 2 mps 709 mmHg 74%
    13:00 +10°C° 0 mm 2 mps 709 mmHg 73%
    14:00 +9°C° 0 mm 2 mps 709 mmHg 77%
    15:00 +8°C° 0 mm 2 mps 708 mmHg 81%
    16:00 +7°C° 0 mm 2 mps 707 mmHg 84%
    17:00 +7°C° 0.3 mm 2 mps 707 mmHg 86%
    18:00 +7°C° 0.3 mm 2 mps 707 mmHg 87%
    19:00 +7°C° 0.3 mm 2 mps 707 mmHg 89%
    20:00 +7°C° 0.1 mm 2 mps 706 mmHg 89%
    21:00 +7°C° 0.1 mm 2 mps 706 mmHg 90%
    22:00 +7°C° 0.1 mm 2 mps 706 mmHg 91%
    23:00 +7°C° 0 mm 2 mps 706 mmHg 91%

    Tomorrow, 13 November, Wednesday

    Time Temperature Precipitation Wind Pressure Humidity
    00:00 +7°C° 0 mm 2 mps 706 mmHg 92%
    01:00 +7°C° 0 mm 2 mps 705 mmHg 92%
    02:00 +7°C° 0.3 mm 2 mps 705 mmHg 93%
    03:00 +8°C° 0.3 mm 2 mps 705 mmHg 93%
    04:00 +8°C° 0.3 mm 2 mps 704 mmHg 94%
    05:00 +8°C° 0.7 mm 2 mps 704 mmHg 94%
    06:00 +9°C° 0.7 mm 2 mps 704 mmHg 95%
    07:00 +9°C° 0.7 mm 2 mps 704 mmHg 95%
    08:00 +10°C° 0.7 mm 3 mps 704 mmHg 92%
    09:00 +10°C° 0.7 mm 4 mps 704 mmHg 89%
    10:00 +11°C° 0.7 mm 4 mps 704 mmHg 86%
    11:00 +12°C° 0.2 mm 4 mps 704 mmHg 81%
    12:00 +12°C° 0.2 mm 4 mps 704 mmHg 76%
    13:00 +13°C° 0.2 mm 3 mps 704 mmHg 71%
    14:00 +11°C° 0 mm 3 mps 703 mmHg 76%
    15:00 +10°C° 0 mm 3 mps 703 mmHg 81%
    16:00 +9°C° 0 mm 2 mps 702 mmHg 86%
    17:00 +9°C° 0.1 mm 2 mps 702 mmHg 88%
    18:00 +9°C° 0.1 mm 3 mps 702 mmHg 90%
    19:00 +9°C° 0.1 mm 3 mps 702 mmHg 91%
    20:00 +9°C° 0.3 mm 3 mps 703 mmHg 91%
    21:00 +10°C° 0.3 mm 3 mps 703 mmHg 90%
    22:00 +10°C° 0.3 mm 3 mps 703 mmHg 89%
    23:00 +10°C° 0.2 mm 3 mps 703 mmHg 89%

    Day after tomorrow, 14 November, Thursday

    Time Temperature Precipitation Wind Pressure Humidity
    00:00 +10°C° 0.2 mm 3 mps 704 mmHg 90%
    01:00 +10°C° 0.2 mm 3 mps 704 mmHg 91%
    02:00 +9°C° 0 mm 2 mps 704 mmHg 92%
    03:00 +9°C° 0 mm 2 mps 705 mmHg 93%
    04:00 +9°C° 0 mm 1 mps 705 mmHg 94%
    05:00 +9°C° 0 mm 1 mps 706 mmHg 95%
    06:00 +8°C° 0 mm 1 mps 706 mmHg 95%
    07:00 +8°C° 0 mm 1 mps 707 mmHg 96%
    08:00 +9°C° 0 mm 1 mps 707 mmHg 92%
    09:00 +10°C° 0 mm 1 mps 708 mmHg 89%
    10:00 +10°C° 0 mm 1 mps 708 mmHg 86%
    11:00 +10°C° 0 mm 2 mps 708 mmHg 83%
    12:00 +12°C° 0 mm 2 mps 709 mmHg 80%
    13:00 +13°C° 0 mm 2 mps 709 mmHg 77%
    14:00 +12°C° 0 mm 2 mps 709 mmHg 81%
    15:00 +10°C° 0 mm 2 mps 708 mmHg 86%
    16:00 +10°C° 0 mm 1 mps 708 mmHg 90%
    17:00 +9°C° 0 mm 2 mps 709 mmHg 91%
    18:00 +9°C° 0 mm 2 mps 709 mmHg 93%
    19:00 +8°C° 0 mm 2 mps 709 mmHg 94%
    20:00 +8°C° 0 mm 2 mps 709 mmHg 94%
    21:00 +8°C° 0 mm 2 mps 709 mmHg 94%
    22:00 +8°C° 0 mm 2 mps 709 mmHg 95%
    23:00 +8°C° 0 mm 2 mps 709 mmHg 94%

    15 November, Friday

    Time Temperature Precipitation Wind Pressure Humidity
    00:00 +7°C° 0 mm 2 mps 709 mmHg 94%
    01:00 +7°C° 0 mm 2 mps 709 mmHg 94%
    02:00 +7°C° 0 mm 2 mps 709 mmHg 94%
    03:00 +7°C° 0 mm 2 mps 709 mmHg 94%
    04:00 +7°C° 0 mm 2 mps 709 mmHg 94%
    05:00 +7°C° 0 mm 2 mps 710 mmHg 94%
    06:00 +7°C° 0 mm 2 mps 710 mmHg 94%
    07:00 +7°C° 0 mm 2 mps 710 mmHg 94%
    08:00 +9°C° 0 mm 2 mps 710 mmHg 89%
    09:00 +10°C° 0 mm 3 mps 711 mmHg 85%
    10:00 +12°C° 0 mm 3 mps 711 mmHg 80%
    11:00 +13°C° 0 mm 3 mps 711 mmHg 77%
    12:00 +13°C° 0 mm 4 mps 711 mmHg 75%
    13:00 +14°C° 0 mm 4 mps 711 mmHg 72%
    14:00 +12°C° 0 mm 3 mps 711 mmHg 77%
    15:00 +11°C° 0 mm 3 mps 711 mmHg 83%
    16:00 +10°C° 0 mm 2 mps 711 mmHg 89%
    17:00 +10°C° 0 mm 2 mps 711 mmHg 90%
    18:00 +9°C° 0 mm 3 mps 711 mmHg 91%
    19:00 +9°C° 0 mm 3 mps 711 mmHg 92%
    20:00 +9°C° 0 mm 3 mps 711 mmHg 91%
    21:00 +9°C° 0 mm 3 mps 711 mmHg 91%
    22:00 +9°C° 0 mm 3 mps 712 mmHg 90%
    23:00 +9°C° 0 mm 3 mps 712 mmHg 90%

    16 November, Saturday

    Time Temperature Precipitation Wind Pressure Humidity
    00:00 +9°C° 0 mm 3 mps 712 mmHg 90%
    01:00 +9°C° 0 mm 2 mps 712 mmHg 90%
    02:00 +9°C° 0 mm 2 mps 712 mmHg 90%
    03:00 +9°C° 0 mm 2 mps 712 mmHg 90%
    04:00 +8°C° 0 mm 2 mps 712 mmHg 89%
    05:00 +8°C° 0 mm 2 mps 712 mmHg 90%
    06:00 +8°C° 0 mm 3 mps 712 mmHg 90%
    07:00 +8°C° 0 mm 3 mps 712 mmHg 90%
    08:00 +9°C° 0 mm 3 mps 713 mmHg 85%
    09:00 +11°C° 0 mm 3 mps 713 mmHg 80%
    10:00 +12°C° 0 mm 3 mps 714 mmHg 75%
    11:00 +12°C° 0 mm 3 mps 714 mmHg 75%
    12:00 +13°C° 0 mm 2 mps 714 mmHg 75%
    13:00 +13°C° 0 mm 2 mps 714 mmHg 74%
    14:00 +13°C° 0 mm 2 mps 714 mmHg 78%
    15:00 +12°C° 0 mm 2 mps 714 mmHg 82%
    16:00 +10°C° 0 mm 2 mps 714 mmHg 86%
    17:00 +9°C° 0 mm 2 mps 714 mmHg 87%
    18:00 +9°C° 0 mm 2 mps 714 mmHg 89%
    19:00 +9°C° 0 mm 2 mps 714 mmHg 90%
    20:00 +9°C° 0 mm 2 mps 714 mmHg 89%
    21:00 +8°C° 0 mm 2 mps 714 mmHg 88%
    22:00 +9°C° 0 mm 1 mps 714 mmHg 87%
    23:00 +9°C° 0 mm 1 mps 714 mmHg 87%

    17 November, Sunday

    Time Temperature Precipitation Wind Pressure Humidity
    00:00 +9°C° 0 mm 1 mps 714 mmHg 87%
    01:00 +9°C° 0 mm 1 mps 713 mmHg 86%
    02:00 +8°C° 0 mm 2 mps 713 mmHg 86%
    03:00 +7°C° 0 mm 2 mps 713 mmHg 85%
    04:00 +7°C° 0 mm 2 mps 713 mmHg 84%
    05:00 +7°C° 0 mm 2 mps 712 mmHg 84%
    06:00 +7°C° 0 mm 2 mps 712 mmHg 83%
    07:00 +7°C° 0 mm 2 mps 712 mmHg 83%
    08:00 +8°C° 0 mm 2 mps 712 mmHg 79%
    09:00 +10°C° 0 mm 2 mps 712 mmHg 75%
    10:00 +12°C° 0 mm 2 mps 713 mmHg 71%
    11:00 +12°C° 0 mm 2 mps 712 mmHg 70%
    12:00 +13°C° 0 mm 2 mps 712 mmHg 69%
    13:00 +13°C° 0 mm 2 mps 712 mmHg 68%
    14:00 +12°C° 0 mm 2 mps 712 mmHg 73%
    15:00 +10°C° 0 mm 2 mps 711 mmHg 78%
    16:00 +9°C° 0 mm 2 mps 711 mmHg 84%
    17:00 +8°C° 0 mm 2 mps 711 mmHg 84%
    18:00 +8°C° 0 mm 2 mps 711 mmHg 85%
    19:00 +7°C° 0 mm 2 mps 711 mmHg 86%
    20:00 +7°C° 0 mm 2 mps 711 mmHg 85%
    21:00 +7°C° 0 mm 2 mps 711 mmHg 85%
    22:00 +7°C° 0 mm 2 mps 711 mmHg 84%
    23:00 +7°C° 0 mm 2 mps 711 mmHg 84%
    Show more